loading
DOY 175 | 2024-06-23T11:54:10Z

OBJECT A, 60012

Orbit data source: Space-Track

OBJECT A, 60012 is a Chinese satellite in SSO that was launched on Thu, 06 Jun 2024 UTC via a Gushenxing 1 launch vehicle from the Jiuquan Satellite Launch Center, China (JSC). Unknown objects in Earth's orbit typically refer to objects detected orbiting the Earth but have not yet been identified or cataloged. These objects could be anything from previously untracked satellites, spent rocket stages, debris from satellite collisions, or even natural meteoroids temporarily captured by Earth's gravity.

Loading next visibility...
Loading greatness...
OBJECT A details
NORAD ID60012
COSPAR ID
2024-110A
Orbit
SSO
Last TLE update7 hours ago
Origin
Flag of CNMUMEI (CN / PRC)
ManufacturerChangguang WJ
BusJL1GF4
MotorUnknown
Mass~112 kg wet, ~112 kg dry
Launch date (UTC)
2024-06-06 (2 weeks ago)
Launch vehicle
Gushenxing 1
Launch site
Jiuquan Satellite Launch Center, China (JSC)
Object typeUnknown
Radar Cross SectionLarge (>1 m²)
Predictive object data (real-time)
Latitude-19.87025°
Longitude97.78595°
Altitude546.938 km
Speed7.592 km/s
Apparent Right ascension07h 39m 21s
Apparent Declination-37° 21' 26"
Sunlit
Object is in daylight
Predictive observer data (real-time)
Local Sidereal Time23:02:16
Azimuth103.043° ESE
Elevation-50.826°
Doppler factor1
Orbital elements
Apogee553.715 km
Perigee535.365 km
Semi-major axis6,922.677 km
Eccentricity0.0013254
Inclination97.6015°
RAAN261.6905°
Arg. of periapsis226.4578°
True anomaly133.66484°
Mean anomaly133.5549°
Mean motion3.76818 °/min
BSTAR0.00052139
Period95.54 mins
Definitive object data (Epoch: 2024-06-23T04:38:25.867Z)
Latitude-0.00004°
Longitude-79.76313°
Altitude556.946 km
Speed7.58 km/s
True Right ascension17h 26m 45s
True Declination0° 00' 00"
Sunlit
Object was in full shadow at TLE epoch
TLE from 7 hours ago
0 OBJECT A
1 60012U 24110A   24175.19335495  .00007614  00000-0  52139-3 0  9996
2 60012  97.6015 261.6905 0013254 226.4578 133.5549 15.06290359  2559
Epoch: 2024-06-23T04:38Z
No data available
Other satellites on launch #110 in the year 2024 (2024-06-06 UTC)

OBJECT A Visibility forecast

Observer location: 39.9160978°, -105.1181434, 0m alt.

OBJECT A is not visible in the next 10 days
Span
Click to sort rows by Start time (UTC) header in descending order
Start Az.
Max El. time (UTC)
Max El. Az.
Max El.
End time (UTC)
End Az.